カタログに戻る

QIANFAN-74

運用中通信PO
NORAD 63160·PAYLOAD·🇨🇳 China

打ち上げ Mar 11, 2025 から Wenchang Space Launch Site

Loading…

次のパス (今後24時間)

TLE

最新Source: Space-Track

元期: Sep 14, 2026, 13:08 UTC

1 63160U 25046B   26257.54743805 -.00000006  00000-0 -27328-4 0  9995
2 63160  88.9653 291.2778 0001821  96.1980 263.9378 13.51018699 84719

AllMySatでQIANFAN-74をリアルタイム追跡

Download on the App Store